Location: Bas-Clignon
(44.2000°N, 6.6333°E)
Time: 13:27:48
(UTC+00:00)

CZ-4C R/B - Pass Details

Date: 03 February 2023
Orbit: 456 x 613 km, 98.1° (Epoch: 19 March)

Event Time Altitude Azimuth Distance (km) Brightness Sun altitude
Rises 18:09:32 0° 8° (N) 2,703 6.7 -15.3°
Reaches altitude 10° 18:11:44 10° 4° (N) 1,779 5.8 -15.7°
Maximum altitude 18:15:27 52° 288° (WNW) 638 4.0 -16.4°
Drops below altitude 10° 18:18:58 10° 211° (SSW) 1,678 6.3 -17.0°
Sets 18:21:00 0° 206° (SSW) 2,532 7.2 -17.3°
